Flag for Benin Weather past 2 weeks in Porto Novo, Benin

Now
75 °F

Drizzle. Broken clouds.


Feels Like: 73 °F
Forecast: 73 / 82 °F
Wind: 8 mph from Southwest

Location: Cotonou Airport

Current Time: Aug 21, 2014 at 9:32:29 AM

Latest Report: Aug 21, 2014 at 8:00 AM


Visibility: 5 mi

Pressure: 29.98 "Hg

Humidity: 100%

Dew point: 75 °F

Location of Porto NovoLocation

Historic Weather in Porto Novo — Graph

°F

Porto Novo temperature yesterday

Maximum temperature yesterday: 82 °F (at 2:00 PM)
Minimum temperature yesterday: 72 °F (at 1:00 AM)
Average temperature yesterday: 76 °F

Past Weeks' High & Low Weather Summary

 TemperatureHumidityPressure
High82 °F (Aug 7, 1:00 PM)100% (Aug 6, 8:00 AM)30.01 "Hg (Aug 6, 8:00 AM)
Low72 °F (Aug 19, 4:00 PM)66% (Aug 14, 1:00 PM)29.83 "Hg (Aug 19, 5:00 PM)
Average77 °F94%29.92 "Hg
* Reported Aug 6 8:00 AM — Aug 21 8:00 AM, Porto Novo, Weather by CustomWeather, © 2014

Note: Actual official high and low records may vary slightly from our data, if they occured in-between our weather recording intervals... More about our weather records

Advertising

Porto Novo weather history for previous 24 hours

 ConditionsComfort  
Time TempWeatherWind HumidityBarometerVisibility
8:00 AM
Aug 21
75 °FDrizzle. Broken clouds.8 mph100%29.98 "Hg5 mi
7:00 AM75 °FScattered clouds.8 mph100%29.95 "HgN/A
6:00 AM75 °FPassing clouds.13 mph100%29.92 "HgN/A
5:00 AM75 °FPassing clouds.13 mph100%29.92 "HgN/A
4:00 AM75 °FPassing clouds.10 mph100%29.92 "HgN/A
3:00 AM75 °FPassing clouds.9 mph100%29.92 "HgN/A
2:00 AM75 °FPartly cloudy.8 mph100%29.92 "HgN/A
1:00 AM75 °FPartly cloudy.8 mph100%29.95 "HgN/A
12:00 AM75 °FPartly cloudy.8 mph100%29.95 "HgN/A
11:00 PM
Aug 20
75 °FPartly cloudy.8 mph100%29.95 "HgN/A
10:00 PM75 °FPartly cloudy.9 mph100%29.95 "HgN/A
9:00 PM75 °FLight rain. Partly cloudy.10 mph100%29.92 "Hg5 mi
8:00 PM75 °FPassing clouds.12 mph100%29.89 "Hg5 mi
7:00 PM75 °FDrizzle. Broken clouds.10 mph100%29.89 "Hg5 mi
6:00 PM77 °FBroken clouds.16 mph100%29.86 "HgN/A
5:00 PM79 °FScattered clouds.13 mph94%29.86 "HgN/A
4:00 PM81 °FScattered clouds.12 mph89%29.86 "HgN/A
3:00 PM82 °FScattered clouds.13 mph84%29.86 "HgN/A
2:00 PM82 °FScattered clouds.12 mph84%29.89 "HgN/A
1:00 PM81 °FScattered clouds.10 mph89%29.92 "HgN/A
12:00 PM81 °FScattered clouds.10 mph89%29.95 "HgN/A
11:00 AM79 °FBroken clouds.12 mph94%29.95 "HgN/A
10:00 AM77 °FScattered clouds.9 mph100%29.95 "HgN/A
9:00 AM75 °FBroken clouds.5 mph100%29.95 "Hg6 mi
Weather by CustomWeather, © 2014

See weather overviewHow to use our weather pages